CAPE
888 1097 856 955 692 1112 983 824 609 801 725 629 733 733 406 487 908 622 571 1251 1277 868 668 714 485 261 235 181 84 187 255 227 427 819 1043 1059 1271 1331 1230 1330 1567 1419 1664
899 1617 1199 1092 1070 785 769 677 625 1023 1087 925 859 779 491 660 638 453 800 674 1763 1613 1128 984 975 447 297 199 106 109 256 179 158 322 603 952 1200 1334 1315 1091 1106 1485 1499
1227 646 1494 1229 1393 1430 977 801 1002 1499 1421 1292 958 535 498 483 270 218 572 918 873 1982 1723 1631 1561 1217 1022 230 216 127 202 355 108 161 189 396 918 1071 1359 1568 1559 1678 1487
1767 1356 1458 1363 1313 1331 1460 1207 914 1024 1126 1206 824 44 2 0 0 107 583 1257 1304 953 1653 2056 1899 873 487 487 384 224 360 280 109 123 168 331 527 958 1071 1558 1630 1959 2194
1314 1581 1321 1267 718 884 1365 1848 1739 1872 1469 1017 722 356 69 42 0 194 548 868 1101 1364 1153 1372 1861 1248 1082 839 762 518 375 199 110 51 158 278 258 512 791 1247 1611 1817 1875
2083 1948 1684 1333 1111 1051 1572 1606 1774 1864 1575 1557 1175 636 308 196 142 96 258 403 624 661 806 1003 1151 1130 1260 1259 976 795 548 335 159 53 162 494 446 341 396 784 1197 1615 1810
2222 2534 2255 1940 1521 1562 1676 1809 1936 1768 1818 1912 1084 950 698 570 498 424 377 524 622 695 728 1285 1210 1138 1048 1239 1046 874 687 545 210 60 36 371 185 324 378 456 928 1278 1587
1931 1666 2053 1843 1632 1673 1886 1978 1824 1968 1962 2327 1646 1356 995 628 1030 738 775 802 876 913 1010 1668 1598 1403 1127 672 706 1473 1155 1095 654 204 43 54 65 237 234 482 423 718 1111
2288 1843 2215 2294 1890 1810 1970 1816 1688 2128 1901 1721 2041 1704 826 827 1163 1260 1247 973 1059 689 845 1764 1727 1401 1160 864 1117 1313 1377 1112 1333 749 356 115 80 97 193 428 370 468 788
2312 2493 2423 2223 1907 2019 2351 1880 2296 2414 2486 1894 1969 2322 1566 1378 1138 1142 1066 1155 770 960 1047 1673 1630 1373 1210 984 967 1270 1498 1114 1247 1197 832 618 368 199 128 276 329 536 678
2076 2228 3020 2553 2330 2224 2367 2369 2719 2457 2657 2809 2774 2139 1898 1408 1577 1691 1534 1208 822 998 909 1351 1561 1414 1267 1299 1210 1391 1588 1269 980 1198 1137 968 714 442 267 126 227 271 367
2123 2105 2862 2849 2649 2518 2500 2480 2532 3130 2895 3182 2882 2316 2166 1855 1702 1725 1480 1469 847 774 1243 889 1643 1556 1428 1309 1407 1403 1673 1442 994 983 1038 1143 1049 718 614 390 245 237 290
1832 2042 2216 3044 2862 2496 2574 2795 2857 3049 3349 3118 2794 2437 2854 2140 2406 2202 2065 1466 730 813 840 1301 1300 1656 1723 1599 1439 1492 1670 1250 951 830 803 837 999 1039 889 782 452 539 416
1295 1702 1767 2949 2967 2836 3009 2933 3193 3207 3227 3293 2494 2702 3057 2291 2128 2565 2334 1186 891 971 629 698 1456 1539 1703 1569 1480 1577 1277 1099 996 801 736 652 683 766 870 889 834 764 724
1653 1652 1864 2610 2915 3343 2826 2519 3389 2806 3047 2797 2488 2691 2748 2398 2690 2190 1581 1067 886 916 874 808 950 943 692 470 1177 1432 1217 1017 1088 1145 793 707 593 536 604 670 648 603 634
1915 2689 2279 2203 3050 2888 3198 2965 3389 2827 3032 2752 2584 3010 2674 2527 2284 1961 1228 1095 1289 1173 1116 1035 1004 539 793 270 900 1564 1514 1360 1160 1331 1240 971 789 559 467 488 508 491 464
1483 2941 3165 3227 3470 3164 3573 3401 3089 2790 3204 2885 2793 3012 2660 2684 2186 1995 1097 615 322 254 147 188 91 27 58 164 165 191 441 582 109 689 824 665 550 555 642 375 364 396 374
1444 2685 3262 3338 3479 3432 3561 3585 3318 3112 2894 3026 3026 2979 2478 2649 2049 2146 513 251 130 65 201 69 39 2 46 10 370 293 182 86 127 193 13 106 189 335 386 451 380 396 363
2161 2637 2693 3283 3337 3112 3264 3548 3853 3485 3054 3507 3096 2935 2593 2473 2056 1656 1253 99 126 89 52 2 0 0 3 0 0 4 0 26 30 13 15 0 0 31 233 369 371 324 361
2043 2000 3259 2634 2645 3188 3313 3191 3453 4071 4036 3820 3050 3014 2820 2440 1961 1610 507 141 285 186 272 48 0 0 0 0 0 0 0 0 0 0 0 0 0 19 66 93 204 267 307
2409 2027 2040 2862 2742 2724 2798 3165 3395 3625 3778 3706 3083 2793 2707 2444 1908 1444 297 199 120 16 0 0 0 0 0 0 0 0 0 0 0 0 0 0 0 0 0 0 38 125 143
2593 2412 2146 2242 2806 2905 2942 3312 3492 3581 3632 3173 2759 2497 2462 2303 1892 680 183 11 0 0 0 0 0 7 0 0 12 0 13 0 6 4 4 0 0 0 0 0 0 95 173
2585 2838 2595 2356 2932 3070 3059 3265 3391 3442 3545 2863 2548 2427 2379 2013 779 232 158 5 0 0 0 3 0 0 0 16 17 16 17 25 11 3 12 3 10 3 0 0 0 0 8
2428 2796 3004 2825 2710 2874 3718 3375 3359 3404 3371 2867 2471 2264 2281 1404 508 275 329 294 182 37 0 0 0 0 0 2 24 20 16 4 1 8 27 32 32 36 17 4 0 0 0
3045 2731 2998 3175 3156 3387 3632 3743 3574 3041 2669 2168 2392 2200 1984 774 300 213 125 7 0 0 0 0 0 0 0 0 0 0 0 0 0 0 11 23 18 8 21 25 17 0 0
2461 3369 3314 3508 3521 3731 3879 3928 3783 2571 2012 1460 1620 1343 739 392 279 179 81 11 9 11 0 0 0 0 0 0 0 0 0 0 0 0 0 1 2 0 0 0 0 0 0
CIN
-42 -13 -29 -26 -38 -45 -26 -61 -66 -74 -68 -36 -44 -21 -25 -24 -66 -13 -24 -29 -29 -25 -23 -0 -2 -4 -3 -27 -34 -23 -12 -14 -15 -0 -0 -0 -0 -0 -2 -3 -2 -5 -10
-44 -30 -34 -14 -40 -20 -29 -46 -36 -13 -14 -13 -14 -39 -27 -26 -16 -58 -18 -17 -19 -18 -18 -4 -0 -4 -5 -3 -27 -35 -8 -5 -15 -6 -14 -0 -0 -0 -0 -3 -4 -2 -4
-49 -100 -71 -41 -32 -43 -36 -16 -22 -75 -39 -36 -9 -126 -52 -33 -53 -99 -57 -15 -42 -34 -29 -0 -0 -0 -0 -10 -7 -10 -0 -0 -22 -18 -15 -2 -0 -0 -0 -0 -0 -0 -12
-60 -55 -42 -54 -87 -88 -37 -42 -34 -71 -90 -48 -26 -39 -6 -0 -0 -326 -63 -38 -20 -15 -50 -1 -0 -0 -39 -0 -0 -0 -9 -0 -16 -17 -13 -3 -1 -0 -0 -0 -0 -0 -0
-49 -52 -32 -55 -150 -28 -29 -44 -44 -34 -22 -27 -27 -33 -42 -69 -0 -347 -94 -41 -29 -48 -38 -71 -11 -6 -0 -0 -0 -0 -1 -2 -16 -51 -3 -3 -4 -3 -2 -0 -0 -0 -0
-49 -47 -29 -21 -19 -19 -21 -43 -35 -19 -67 -32 -32 -28 -42 -48 -103 -69 -64 -70 -32 -31 -143 -78 -84 -55 -12 -3 -0 -0 -0 -0 -10 -38 -1 -0 -1 -2 -4 -1 -0 -0 -0
-42 -32 -33 -20 -26 -15 -18 -22 -15 -27 -38 -49 -21 -29 -28 -20 -22 -37 -17 -18 -5 -19 -36 -70 -94 -5 -0 -10 -4 -2 -0 -0 -8 -4 -10 -0 -0 -2 -4 -5 -1 -0 -0
-18 -32 -61 -19 -33 -65 -28 -19 -21 -26 -72 -20 -22 -57 -27 -87 -14 -41 -25 -32 -21 -38 -40 -58 -56 -30 -17 -12 -19 -0 -0 -0 -0 -10 -10 -1 -3 -0 -6 -2 -4 -2 -0
-72 -38 -57 -41 -52 -62 -37 -53 -53 -31 -31 -41 -37 -24 -51 -51 -53 -17 -29 -48 -54 -30 -38 -75 -93 -55 -65 -74 -41 -7 -0 -0 -0 -0 -2 -11 -9 -7 -0 -0 -4 -3 -1
-30 -33 -31 -35 -50 -50 -40 -11 -6 -28 -23 -34 -36 -64 -13 -38 -34 -43 -46 -36 -18 -25 -29 -76 -97 -96 -118 -104 -112 -47 -1 -3 -0 -0 -0 -0 -0 -0 -1 -0 -0 -1 -1
-62 -30 -26 -36 -28 -43 -42 -23 -13 -31 -42 -29 -18 -26 -23 -26 -55 -25 -24 -6 -33 -42 -39 -70 -94 -117 -111 -115 -85 -64 -36 -23 -13 -0 -0 -0 -0 -0 -0 -0 -0 -7 -2
-67 -65 -35 -44 -46 -48 -55 -36 -39 -13 -16 -19 -26 -34 -16 -15 -16 -31 -23 -9 -31 -49 -24 -19 -87 -110 -84 -94 -93 -92 -68 -54 -59 -30 -2 -0 -0 -0 -0 -0 -0 -1 -5
-57 -41 -26 -34 -60 -61 -79 -34 -49 -25 -20 -30 -29 -46 -19 -10 -17 -25 -5 -22 -37 -53 -54 -21 -44 -83 -107 -76 -73 -111 -82 -96 -89 -65 -41 -19 -0 -0 -0 -0 -0 -0 -0
-49 -52 -81 -51 -52 -66 -59 -45 -40 -20 -37 -21 -51 -59 -12 -42 -11 -25 -3 -22 -49 -44 -52 -42 -43 -33 -55 -39 -39 -103 -104 -91 -87 -86 -9 -69 -50 -26 -5 -0 -0 -0 -0
-89 -44 -85 -78 -61 -37 -42 -60 -45 -48 -32 -17 -43 -23 -33 -41 -47 -45 -16 -37 -42 -63 -54 -20 -23 -67 -90 -109 -106 -85 -31 -21 -12 -8 -82 -5 -84 -82 -61 -45 -25 -6 -0
-70 -78 -70 -101 -48 -68 -79 -117 -59 -62 -35 -37 -51 -29 -34 -43 -55 -25 -17 -19 -63 -17 -22 -31 -23 -27 -105 -158 -80 -35 -21 -23 -17 -8 -8 -11 -11 -50 -81 -76 -65 -62 -47
-131 -56 -77 -65 -55 -71 -57 -51 -47 -55 -15 -18 -33 -20 -10 -35 -59 -41 -33 -41 -28 -50 -41 -74 -134 -146 -137 -87 -108 -148 -81 -32 -97 -66 -44 -58 -30 -35 -16 -39 -86 -75 -73
-136 -72 -37 -59 -40 -46 -41 -41 -39 -37 -28 -37 -18 -12 -46 -40 -68 -36 -108 -119 -91 -204 -113 -137 -260 -9 -143 -131 -51 -54 -30 -62 -51 -26 -7 -115 -91 -86 -92 -29 -47 -23 -21
-111 -100 -78 -46 -67 -91 -65 -48 -24 -16 -36 -11 -12 -17 -37 -47 -58 -42 -42 -204 -220 -223 -193 -70 -0 -0 -33 -0 -0 -34 -0 -58 -55 -36 -8 -0 -0 -134 -6 -23 -42 -44 -40
-101 -161 -74 -149 -148 -94 -87 -71 -35 -7 -7 -2 -13 -10 -18 -24 -62 -53 -153 -249 -202 -165 -92 -51 -0 -0 -0 -0 -0 -0 -0 -0 -0 -0 -0 -0 -0 -147 -122 -106 -93 -94 -88
-153 -140 -193 -144 -143 -158 -154 -91 -50 -17 -10 -4 -10 -8 -23 -15 -37 -45 -180 -263 -219 -196 -0 -0 -0 -0 -0 -0 -0 -0 -0 -0 -0 -0 -0 -0 -0 -0 -0 -0 -108 -134 -109
-175 -183 -197 -196 -175 -181 -150 -88 -49 -22 -9 -5 -19 -24 -21 -15 -25 -83 -148 -258 -0 -0 -0 -0 -0 -50 -0 -0 -13 -0 -12 -0 -23 -24 -17 -0 -0 -0 -0 -0 -0 -154 -114
-216 -212 -204 -189 -194 -179 -135 -89 -40 -21 -7 -7 -15 -37 -20 -14 -132 -264 -237 -213 -0 -0 -0 -27 -0 -0 -0 -22 -4 -4 -2 -40 -49 -52 -21 -3 -13 -12 -0 -0 -0 -0 -109
-257 -236 -221 -210 -206 -179 -108 -59 -17 -5 -6 -4 -24 -50 -18 -28 -129 -227 -242 -215 -133 -132 -0 -0 -0 -0 -0 -2 -0 -0 -0 -0 -3 -11 -27 -7 -6 -1 -17 -15 -0 -0 -0
-220 -238 -238 -238 -201 -169 -110 -38 -1 -9 -11 -38 -14 -17 -1 -100 -176 -113 -128 -51 -0 -0 -0 -0 -0 -0 -0 -0 -0 -0 -0 -0 -0 -0 -13 -4 -14 -29 -21 -33 -33 -0 -0
-212 -173 -194 -184 -165 -147 -66 -22 -12 -26 -17 -24 -21 -14 -36 -61 -93 -85 -83 -153 -201 -255 -0 -0 -0 -0 -0 -0 -0 -0 -0 -0 -1 -0 -0 -0 -7 -0 -0 -0 -0 -0 -0
Wind_Speed
11 9 11 13 15 15 12 13 14 14 14 20 16 19 18 11 16 18 14 28 28 30 29 31 32 35 27 22 nan 15 15 10 7 6 2 2 1 1 1 1 2 4 5
5 5 6 9 11 13 16 13 13 13 16 20 18 13 11 2 10 14 13 18 32 35 35 35 34 38 33 27 25 23 15 13 8 9 10 5 1 2 3 0 4 3 4
6 5 6 6 7 9 11 9 13 14 17 17 14 28 30 30 19 14 1 14 22 36 36 38 39 39 36 35 32 24 20 14 11 7 9 10 3 2 3 3 5 3 4
10 8 9 8 9 6 11 11 11 12 16 11 13 nan nan nan nan 17 4 9 19 18 29 39 40 26 27 31 33 25 23 27 14 13 6 9 9 1 2 4 6 5 4
11 12 12 12 7 5 9 9 9 13 11 11 16 19 nan nan nan 20 15 19 22 24 26 35 43 33 34 29 31 36 31 33 27 nan 12 7 9 9 5 3 5 5 7
12 14 12 11 10 9 8 8 9 10 11 13 20 21 27 28 27 nan 28 29 28 26 24 29 32 30 41 39 36 34 36 37 36 nan 18 10 9 8 10 8 6 6 7
11 11 7 8 8 9 9 9 10 13 15 16 15 20 21 26 30 31 33 32 27 24 26 34 31 30 24 40 33 35 37 40 41 nan nan 16 11 7 11 13 11 8 7
10 11 11 8 7 5 7 8 12 14 16 12 18 17 17 18 25 30 27 26 27 25 25 31 33 32 30 29 30 37 39 43 44 42 nan nan nan 12 8 14 16 12 10
11 10 11 9 5 4 8 10 12 14 15 15 13 18 15 17 20 20 24 26 27 22 25 27 29 30 31 28 28 35 41 40 43 43 37 34 nan nan 17 11 13 17 14
7 9 10 8 8 8 8 9 11 13 12 14 12 15 17 17 14 13 14 16 19 25 23 21 22 27 28 27 29 30 36 37 39 43 41 39 35 31 31 23 10 17 15
10 13 12 11 11 10 9 10 13 13 13 12 14 13 14 18 21 21 20 17 17 20 23 27 28 25 24 23 24 26 35 37 37 39 37 38 36 34 36 33 20 11 17
11 13 14 11 12 10 11 12 12 12 14 17 18 19 21 23 25 26 24 17 16 11 15 21 27 28 28 26 25 27 31 37 37 37 35 32 32 33 33 33 35 23 9
8 12 10 9 9 8 9 8 9 10 10 12 14 16 17 20 23 25 28 24 22 16 15 17 20 24 25 25 25 27 29 30 32 33 32 31 31 29 28 31 32 28 31
7 10 10 7 7 7 7 8 7 11 13 14 20 19 16 18 19 22 26 28 23 21 20 21 17 21 20 19 17 25 23 27 28 30 31 29 28 27 27 27 26 25 25
5 8 11 9 10 10 11 12 13 15 16 17 17 19 22 21 24 21 27 29 31 30 29 26 28 25 27 26 21 25 22 22 27 29 29 30 28 26 25 24 24 23 23
5 4 7 13 12 13 15 17 15 12 13 11 15 19 21 22 24 25 25 26 27 28 26 28 29 31 34 31 33 33 24 21 24 26 24 25 22 22 23 24 22 22 22
3 7 9 15 19 21 18 15 15 13 12 15 15 18 19 23 24 27 27 28 30 34 36 29 nan nan nan 21 23 31 33 29 27 31 29 25 27 26 24 22 21 20 19
6 6 12 23 25 23 17 17 17 11 13 15 15 17 16 17 18 24 27 29 31 nan 34 nan nan nan nan nan 29 29 26 nan 30 30 nan 28 28 24 24 25 23 20 16
4 4 11 14 19 17 15 18 20 13 14 13 14 20 20 20 18 19 21 nan 27 nan nan nan nan nan nan nan nan nan nan nan nan nan nan nan nan nan 26 25 25 26 22
4 7 7 16 14 13 16 18 20 22 16 14 17 20 19 22 26 27 26 30 31 33 34 nan nan nan nan nan nan nan nan nan nan nan nan nan nan nan nan nan 24 24 24
6 11 9 10 14 17 18 19 24 20 17 12 19 20 18 21 28 30 31 32 37 nan nan nan nan nan nan nan nan nan nan nan nan nan nan nan nan nan nan nan nan 28 26
6 10 11 15 18 16 22 27 26 26 20 20 23 27 23 27 31 33 33 nan nan nan nan nan nan nan nan nan nan nan nan nan nan nan nan nan nan nan nan nan nan nan 29
11 14 13 15 17 20 30 34 35 31 26 27 38 36 35 29 34 38 34 nan nan nan nan nan nan nan nan nan nan nan nan nan nan nan nan nan nan nan nan nan nan nan nan
14 18 22 25 24 26 34 35 39 37 35 32 34 38 33 36 41 39 45 43 38 nan nan nan nan nan nan nan nan nan nan nan nan nan nan nan nan nan nan nan nan nan nan
21 19 22 27 31 30 41 46 50 49 47 26 34 44 50 51 53 41 42 nan nan nan nan nan nan nan nan nan nan nan nan nan nan nan nan nan nan nan nan nan nan nan nan
22 25 27 31 34 44 42 47 49 50 56 60 55 55 70 67 57 53 nan nan nan nan nan nan nan nan nan nan nan nan nan nan nan nan nan nan nan nan nan nan nan nan nan
Wind_Direction
28 32 27 23 23 6 17 18 3 8 8 28 359 355 31 25 360 341 5 32 24 28 45 43 35 32 40 30 nan 16 21 6 194 158 152 96 76 71 31 46 66 72 88
7 344 5 7 2 12 355 356 358 6 18 28 354 309 351 16 35 312 2 37 35 27 38 43 34 34 34 32 18 22 26 21 228 173 143 157 115 103 92 137 100 110 95
335 342 324 342 18 8 17 355 13 22 20 35 314 349 352 353 333 263 190 43 43 30 27 45 41 28 26 24 21 26 28 344 29 221 159 155 141 108 114 113 94 140 113
325 324 315 327 358 16 22 8 12 29 41 28 16 nan nan nan nan 262 196 43 52 35 34 46 54 17 29 33 25 28 32 21 360 68 203 144 155 182 121 133 148 156 152
333 324 328 344 6 344 27 354 10 27 39 24 27 26 nan nan nan 83 85 54 56 51 35 46 52 36 22 31 31 27 34 19 14 nan 41 194 151 159 186 170 155 175 167
339 326 329 345 353 14 21 352 30 57 65 39 40 35 42 48 64 nan 70 66 59 49 48 48 54 47 35 36 32 27 23 15 8 nan 47 61 222 195 194 203 192 178 178
321 322 346 344 360 13 12 18 55 86 79 47 51 60 53 48 60 59 62 60 63 62 52 49 51 50 53 43 38 25 18 17 21 nan nan 27 25 244 190 207 207 186 190
339 330 333 339 6 19 72 62 77 77 63 59 66 66 69 65 59 55 53 63 64 56 44 36 41 42 44 46 39 32 25 26 27 30 nan nan nan 33 231 188 206 202 199
343 334 356 354 10 54 76 67 62 61 63 54 39 41 65 56 61 56 54 46 57 47 44 35 34 33 34 35 33 31 27 26 27 28 30 35 nan nan 17 263 198 201 205
3 28 35 46 66 77 71 55 45 42 37 46 45 25 30 28 44 61 56 46 41 28 20 32 26 24 24 25 22 19 23 24 27 28 30 31 35 28 30 20 248 200 205
71 74 70 65 67 69 71 60 45 31 30 38 32 25 24 30 21 12 29 33 18 10 13 0 4 9 10 12 15 12 13 17 21 26 33 33 30 27 28 26 12 218 187
76 81 79 75 70 66 65 62 58 38 31 23 20 15 7 10 7 356 355 355 353 3 5 359 357 355 357 355 358 2 4 9 14 17 22 28 30 31 30 29 35 34 269
95 76 75 71 76 67 61 61 57 54 35 19 16 15 6 360 356 356 343 338 321 327 337 345 353 342 344 344 346 347 -0 2 5 8 13 17 17 21 26 28 33 42 40
86 62 64 59 57 54 48 32 25 27 26 17 15 7 6 11 10 14 8 3 356 335 325 325 318 314 317 321 337 340 340 353 359 2 3 5 10 9 9 17 24 28 29
93 60 43 32 28 29 26 14 7 24 22 20 11 5 4 10 9 6 7 4 3 3 1 354 338 315 306 306 314 321 318 336 345 349 358 358 359 3 7 6 9 14 13
93 42 17 8 9 10 13 16 13 18 28 17 8 355 355 358 359 353 355 356 356 351 347 349 341 341 337 322 308 308 308 319 342 344 349 346 351 357 357 1 1 2 0
41 3 21 20 13 14 20 28 19 15 12 14 8 2 6 355 355 353 352 353 355 350 349 349 nan nan nan 326 329 323 310 299 304 330 337 344 349 351 353 351 347 350 351
56 354 28 29 31 23 3 354 351 4 15 13 359 358 355 346 2 348 346 346 345 nan 343 nan nan nan nan nan 335 324 319 nan 293 298 nan 323 328 335 335 334 334 334 330
8 20 53 40 33 19 357 355 348 345 0 345 341 338 336 341 352 337 336 nan 342 nan nan nan nan nan nan nan nan nan nan nan nan nan nan nan nan nan 308 307 303 298 298
26 32 56 41 20 346 341 341 336 341 326 312 326 328 335 344 345 338 334 339 340 335 333 nan nan nan nan nan nan nan nan nan nan nan nan nan nan nan nan nan 292 292 294
16 13 359 338 317 325 341 335 332 348 355 327 322 332 340 343 341 334 330 332 331 nan nan nan nan nan nan nan nan nan nan nan nan nan nan nan nan nan nan nan nan 284 288
328 349 355 338 324 328 323 328 329 335 330 325 320 326 317 330 324 324 322 nan nan nan nan nan nan nan nan nan nan nan nan nan nan nan nan nan nan nan nan nan nan nan 287
300 336 336 323 313 330 319 322 319 314 317 318 320 303 308 317 322 317 318 nan nan nan nan nan nan nan nan nan nan nan nan nan nan nan nan nan nan nan nan nan nan nan nan
303 308 318 323 320 317 320 311 314 309 300 302 315 311 309 302 297 310 315 316 309 nan nan nan nan nan nan nan nan nan nan nan nan nan nan nan nan nan nan nan nan nan nan
290 307 308 313 310 301 309 309 312 305 303 279 301 297 301 298 286 291 303 nan nan nan nan nan nan nan nan nan nan nan nan nan nan nan nan nan nan nan nan nan nan nan nan
294 289 299 300 296 289 296 294 290 300 300 302 301 297 292 295 301 285 nan nan nan nan nan nan nan nan nan nan nan nan nan nan nan nan nan nan nan nan nan nan nan nan nan